GFSSE_con_mlcape_129.txt.gz
CAPE
21 309 524 462 730 968 1013 949 938 979 1036 1044 877 812 919 1068 1184 1283 1417 1536 1386 1367 1197 1031 864 734 780 764 786 774 769 808 802 750 666 529 475 505 430 345 360 342 328
12 435 480 403 660 852 1057 1062 1041 1072 1111 1110 954 935 1060 1176 1265 1365 1437 1499 1249 1240 1139 872 724 634 710 731 840 764 689 687 617 536 497 422 458 472 257 197 322 322 310
0 326 331 314 561 754 923 1133 1206 1246 1272 1164 1125 1073 1267 1357 1392 1429 1488 1389 985 913 778 686 641 671 737 679 682 671 642 482 327 243 252 249 282 397 204 88 356 347 276
0 102 123 249 468 644 769 1013 1215 1317 1359 1258 1333 1300 1385 1479 1468 1495 1356 852 495 530 685 548 459 462 500 599 552 554 470 404 507 235 181 158 272 351 329 306 324 301 255
0 86 49 216 468 607 709 880 1178 1363 1396 1362 1451 1424 1455 1544 1627 1487 1200 644 317 372 553 426 313 396 546 679 577 530 384 451 320 195 199 242 389 458 426 382 265 191 172
104 111 52 210 506 622 752 875 1111 1361 1467 1464 1525 1537 1492 1584 1600 1446 936 611 284 207 553 327 324 334 459 622 499 481 321 340 232 165 217 279 329 396 307 223 108 81 80
449 605 159 202 519 684 816 953 1142 1349 1515 1571 1570 1651 1612 1684 1573 1220 845 472 35 0 172 303 258 254 398 586 477 455 238 303 288 246 176 208 361 363 325 156 68 46 5
594 762 507 290 512 752 878 1049 1182 1419 1320 1664 1645 1686 1628 1707 1431 1118 734 104 0 18 9 157 260 319 245 516 434 386 232 242 276 184 106 271 333 278 226 102 3 0 0
741 659 585 285 646 771 858 1143 1358 1523 1466 1714 1465 1692 1691 1571 1224 803 92 24 0 0 0 0 182 260 349 541 317 299 152 66 162 146 162 304 299 220 134 30 1 1 2
907 730 576 246 521 751 827 1007 1356 1404 1446 1732 1576 1731 1711 1442 926 482 67 5 0 8 308 347 516 583 656 462 279 235 104 37 174 130 183 308 249 136 31 5 4 3 2
1426 1284 968 316 293 644 856 930 1188 1425 1209 1590 1473 1653 1653 1297 883 600 236 38 59 216 491 551 357 323 207 180 230 224 115 21 98 94 161 220 204 94 22 6 5 4 7
1608 1718 1601 1077 401 654 955 958 964 1244 1095 1168 1424 1687 1585 1373 967 533 225 228 157 263 379 255 369 230 161 137 131 183 134 28 74 91 130 187 177 77 9 3 7 7 10
1664 1969 2014 1885 1306 941 1155 942 899 1046 1161 1077 1331 1501 1574 1626 1166 861 544 524 257 526 455 502 304 140 150 109 86 128 126 12 50 68 125 125 103 55 4 6 17 15 14
1603 1859 2174 2176 1976 1630 1455 1518 1024 985 978 1052 1291 1578 1597 1709 1449 947 749 603 434 587 529 409 165 120 119 108 77 118 124 0 0 9 12 0 2 10 8 17 15 18 14
950 1751 2231 2312 2165 2071 1725 1873 1679 1272 1224 1193 1285 1760 1614 1657 1573 1281 918 828 727 613 617 334 149 105 148 144 145 106 79 0 0 0 0 0 0 0 3 14 11 19 14
0 1184 2149 2492 2407 2145 2081 1827 1831 1617 1740 1579 1488 1587 1950 1576 1561 1380 1021 873 732 647 591 264 136 103 159 128 122 58 52 1 0 0 0 0 0 0 3 8 10 15 23
0 1 1614 2400 2543 2431 2265 1941 1758 1501 1790 1866 1787 1668 1787 1984 1578 1366 1106 850 678 539 444 325 161 33 31 46 54 21 44 5 0 3 0 0 0 0 4 5 12 12 9
0 0 982 2326 2496 2558 2281 2142 1857 1645 1408 1962 1943 1889 1830 1938 1849 1389 1174 977 686 528 410 269 66 3 2 10 25 6 53 8 1 0 0 0 0 0 1 3 0 8 8
0 0 103 1920 2396 2329 2325 2188 2029 1777 1786 1580 2046 1805 2099 1972 1920 1553 1253 1046 714 493 334 162 36 0 0 10 34 38 69 5 5 0 0 0 0 0 0 2 0 2 0
0 0 0 1 796 1828 2013 2094 2027 1785 1705 1371 1635 2164 1781 2140 1897 1675 1288 1098 686 391 242 122 33 0 0 0 26 34 35 0 5 1 0 0 0 0 0 0 0 0 0
0 0 0 0 0 0 1079 1604 1709 1816 1648 1343 1362 1533 2054 2066 2045 1731 1353 1099 759 472 274 89 38 4 1 2 21 21 3 1 0 7 0 0 0 0 0 0 0 0 0
0 0 0 0 2 5 0 201 1498 1658 1743 1654 1433 1255 1577 1667 1789 1733 1545 1168 892 577 277 81 19 9 1 1 3 2 19 1 4 0 0 0 0 0 0 0 0 0 0
3 15 0 0 92 168 90 0 0 1024 1696 1601 1505 1416 1236 1462 1510 1654 1393 1190 898 634 420 141 44 13 1 1 6 0 0 2 2 8 0 0 0 0 0 0 0 0 0
27 10 0 0 15 265 494 103 0 0 273 1119 1279 1231 1175 905 1343 1539 1177 1041 872 556 318 164 44 8 1 1 6 0 0 0 0 3 10 4 1 0 0 0 0 0 0
26 1 64 50 17 32 406 505 485 451 377 465 740 912 730 818 973 1204 1051 798 677 497 268 132 38 11 0 1 2 0 0 0 1 1 0 7 17 1 3 0 0 0 0
33 29 47 23 2 34 37 46 306 826 788 626 547 572 538 527 730 883 805 651 494 355 132 60 34 20 1 0 0 5 0 0 0 0 0 0 0 6 1 2 0 0 0

GFSSE_con_mlcape_132.txt.gz
CAPE
59 489 807 973 862 770 795 895 919 865 866 725 783 908 1069 1184 1299 1321 1382 1447 1426 1269 1158 913 765 636 728 724 577 526 472 522 923 928 836 854 823 736 653 541 451 418 434
15 596 737 927 872 794 835 902 936 963 1021 847 889 965 1084 1206 1332 1392 1458 1414 1280 1055 903 766 738 757 733 797 645 620 719 702 743 672 828 827 742 711 560 445 412 430 395
20 531 727 786 781 831 933 992 1020 1069 1102 960 1025 1036 1213 1277 1320 1416 1395 1262 1141 1025 907 718 749 831 712 638 576 575 661 565 563 629 645 610 621 560 312 497 451 437 378
22 407 517 594 567 733 943 1060 1122 1199 1159 1026 1107 1235 1364 1338 1355 1390 1063 857 831 929 770 738 694 643 671 639 670 615 526 416 359 311 338 455 551 512 401 492 423 385 303
7 156 313 427 447 572 866 1030 1177 1278 1189 1165 1201 1387 1481 1490 1478 1213 803 657 738 839 655 570 653 644 645 601 582 499 527 342 311 296 346 398 527 590 558 473 378 262 164
0 22 214 243 297 463 717 982 1218 1303 1256 1271 1255 1465 1660 1622 1497 1147 650 524 720 842 743 516 554 520 530 545 457 555 444 240 289 280 362 440 439 589 506 341 244 195 98
0 6 163 154 258 469 728 919 1154 1245 1273 1300 1412 1557 1727 1704 1525 1137 726 459 229 790 735 489 420 532 448 546 400 335 267 243 289 246 308 389 472 484 380 273 179 119 24
0 0 37 235 316 494 800 906 1053 1170 1270 1356 1506 1547 1717 1644 1442 1007 588 348 2 276 626 391 316 242 432 509 339 186 218 245 209 201 195 365 415 402 343 252 161 40 0
0 0 5 302 419 574 743 908 1033 1205 1337 1438 1556 1568 1670 1528 1258 943 514 20 0 19 364 337 278 166 228 561 351 181 122 183 212 175 262 399 404 418 281 179 58 21 9
230 100 0 118 473 582 874 931 1129 1095 1424 1544 1609 1630 1576 1407 1207 922 124 0 0 0 198 389 349 276 127 440 312 210 26 97 164 169 272 358 418 381 231 86 24 7 5
598 534 206 52 263 392 725 1128 1259 1218 1472 1607 1370 1667 1478 1203 957 772 0 0 0 13 52 207 219 299 489 486 212 163 17 75 113 150 183 326 353 291 197 43 3 2 8
563 662 472 188 128 396 667 1051 1357 1222 1428 1609 1402 1494 1509 1105 662 422 29 0 1 191 319 346 527 568 119 53 144 172 18 17 103 145 230 288 294 298 109 11 2 8 8
606 797 805 468 144 312 626 757 1062 1199 1124 1406 1274 1459 1542 1127 811 480 127 46 53 303 441 393 385 280 120 63 94 52 32 36 68 127 228 281 296 267 64 14 11 12 11
919 977 1207 962 421 273 620 611 769 1093 1013 1067 1166 1418 1329 1376 932 685 287 110 76 237 204 150 263 206 103 92 90 50 34 35 77 98 191 261 241 194 63 16 12 21 15
1142 1333 1400 1507 1273 701 513 550 642 821 927 822 994 1313 1360 1458 1217 812 458 300 208 253 170 142 156 148 87 88 113 92 35 16 42 63 106 189 195 167 64 11 18 17 16
1328 1514 1733 1714 1774 1550 1035 938 787 805 781 905 996 1280 1445 1528 1392 1009 704 525 356 242 354 234 202 109 104 78 78 42 14 5 23 14 12 33 75 33 19 9 20 9 18
117 1265 1898 1912 1986 2039 1744 1413 1404 1219 1032 913 993 1238 1502 1507 1436 1217 891 733 611 440 364 375 259 118 51 36 21 48 12 1 0 0 0 0 0 0 2 5 9 8 20
0 30 1302 2166 2127 2088 2186 1799 1671 1564 1466 1372 1416 1280 1535 1608 1418 1221 1038 883 715 605 518 462 217 88 19 16 19 26 12 0 0 0 0 0 0 0 0 2 12 17 16
0 0 101 1868 1968 2194 2268 2011 1774 1636 1632 1610 1709 1630 1524 1690 1554 1289 1170 913 673 584 508 425 179 44 11 13 16 9 0 0 0 0 0 0 0 0 0 4 11 12 13
0 0 31 1411 2327 2426 2141 2084 1708 1642 1558 1400 1619 1780 1668 1689 1613 1438 1264 1015 720 600 443 309 189 27 3 6 4 0 2 1 0 2 0 0 0 0 0 0 6 10 6
0 0 164 1631 2316 2070 1553 1636 1388 1494 1471 1532 1398 1657 1758 1844 1757 1480 1202 832 730 754 500 209 100 0 0 0 0 3 10 0 0 0 0 0 0 0 0 0 0 0 0
0 0 0 0 0 786 1279 1505 1452 1481 1411 1624 1520 1168 1618 1792 1638 1364 1118 744 677 605 423 267 146 11 0 1 3 13 4 5 0 0 0 0 0 0 0 0 0 0 0
39 63 64 97 156 158 103 24 727 1494 1400 1410 1421 1394 1115 1447 1616 1373 948 790 579 510 498 308 147 61 19 8 3 1 2 2 0 0 0 0 0 0 0 0 0 0 0
137 93 64 54 52 198 450 134 193 639 938 1022 881 1193 1374 1167 1071 1278 1031 899 741 568 484 359 206 134 40 17 6 0 0 0 0 0 0 0 0 0 0 0 0 0 0
56 74 60 64 73 132 163 326 407 197 57 347 1039 1204 1027 811 871 1114 1008 844 774 650 565 400 289 91 11 7 5 1 0 0 0 0 0 0 0 0 0 0 0 0 0
39 4 0 35 115 192 198 94 23 33 480 614 561 849 765 571 831 845 808 874 941 761 525 414 330 174 36 1 2 1 1 0 0 0 0 0 0 0 0 0 0 0 0

GFSSE_con_mlcape_135.txt.gz
CAPE
33 588 882 952 920 888 836 681 576 514 569 744 850 1001 1185 1239 1270 1317 1338 1312 1333 1251 1092 927 891 930 856 774 748 626 386 291 303 360 788 940 933 955 724 643 566 519 502
28 671 951 940 891 885 874 790 748 625 640 815 934 1030 1150 1233 1336 1359 1342 1276 1127 1164 1090 924 846 870 863 745 592 408 129 253 420 425 705 752 727 881 693 628 593 524 493
37 673 1000 944 912 904 907 889 901 820 712 838 1018 1072 1162 1285 1428 1402 1321 1216 1204 1186 1073 977 948 878 829 898 918 908 750 584 591 833 805 762 754 724 656 613 546 530 471
96 610 842 901 823 888 936 989 1031 975 820 914 1068 1180 1272 1324 1443 1320 1202 1166 1204 1099 1028 1110 1163 1034 795 743 808 727 647 625 538 553 517 576 600 629 679 602 540 499 358
89 371 555 739 841 804 963 1077 1146 1098 936 988 1105 1259 1376 1387 1410 1115 897 892 1000 974 1049 1156 1080 832 693 699 626 554 450 385 377 351 372 472 512 658 657 591 495 234 92
7 260 390 511 723 640 908 1065 1208 1129 976 1013 1142 1351 1423 1451 1328 918 707 725 884 859 1036 1309 965 774 686 640 551 358 327 290 310 290 345 444 491 650 635 448 306 205 113
2 128 313 311 544 564 833 1030 1166 1131 1061 1073 1191 1386 1512 1521 1279 743 566 635 781 896 743 902 810 766 610 599 635 269 307 286 283 281 314 409 602 647 550 396 284 137 45
0 27 168 339 395 508 775 974 1116 1130 1099 1162 1214 1416 1562 1559 1250 725 446 357 464 875 599 509 660 695 603 558 512 299 279 290 242 232 300 319 528 422 398 354 187 51 15
0 1 194 314 370 457 721 875 1043 1082 1074 1205 1268 1428 1579 1540 1179 850 458 144 226 550 561 354 481 645 594 510 340 290 279 257 199 202 277 345 404 457 380 302 140 44 1
0 7 132 184 268 497 729 888 1005 1035 1029 1155 1331 1429 1548 1449 1152 750 396 20 0 115 321 304 307 543 658 486 302 192 174 238 192 219 248 294 320 356 357 225 146 53 9
0 26 103 84 204 375 678 890 1063 1124 1122 1235 1430 1468 1483 1375 1142 752 215 0 0 0 102 322 317 253 498 463 328 120 104 95 156 156 158 189 238 336 273 233 89 20 11
0 0 38 75 147 298 643 959 1156 1196 1389 1417 1486 1498 1469 1154 995 741 100 0 0 0 155 311 269 146 566 465 245 92 64 103 167 156 156 183 261 280 323 138 28 20 18
6 62 5 18 134 243 578 873 1141 1166 1425 1436 1335 1470 1412 994 808 621 50 0 0 16 55 202 202 310 462 126 207 89 65 127 133 134 182 201 171 311 350 89 44 30 12
308 258 272 174 146 328 546 701 1023 1105 1109 1349 1187 1393 1307 1050 721 504 159 19 9 91 85 187 211 301 253 67 84 52 56 55 84 90 200 208 198 237 309 137 75 35 16
778 559 542 420 264 292 438 514 783 1018 1002 1231 1193 1353 1323 1213 866 513 217 85 31 80 199 121 85 57 94 72 62 22 21 16 23 77 147 201 189 275 281 81 76 44 18
813 1030 872 655 534 450 386 335 441 787 827 928 1119 933 994 1119 1085 682 388 166 88 61 70 39 0 46 77 50 25 14 7 20 40 66 111 159 194 237 171 58 26 28 21
36 1092 1368 1148 901 754 590 400 423 536 738 665 711 848 941 1037 1041 704 589 333 154 119 52 52 12 94 119 51 10 1 0 3 18 31 64 105 130 151 71 11 24 23 20
0 143 1527 1707 1510 1359 1175 933 608 554 642 715 809 876 966 1029 1117 877 735 626 353 230 104 72 57 133 86 8 0 0 0 0 7 13 21 34 40 16 2 4 14 16 19
0 0 803 1903 1798 1822 1794 1541 1347 1058 932 860 822 798 953 1059 1001 975 848 700 496 392 261 113 118 201 80 0 14 6 4 0 2 5 1 0 3 0 0 0 10 14 15
0 0 74 1294 1839 2053 2115 1820 1637 1541 1455 1388 1348 1215 1108 1168 1185 1192 989 799 643 579 460 297 213 137 88 18 16 20 5 0 0 2 1 0 0 0 0 0 4 14 11
0 0 0 703 1711 2076 2103 2000 1792 1751 1603 1573 1642 1621 1592 1523 1465 1281 1229 970 752 735 640 408 132 149 45 6 13 8 8 0 0 0 0 0 0 0 0 0 0 3 7
0 0 0 500 1269 1998 2075 1908 1615 1548 1469 1570 1282 1571 1730 1728 1607 1474 1321 1028 754 644 488 220 175 122 16 0 4 3 1 2 1 0 0 1 0 0 0 0 0 0 0
8 164 191 757 1348 1934 1961 1575 1465 1474 1339 1311 1317 1410 1358 1595 1541 1552 1328 988 683 511 343 197 244 215 126 1 0 2 4 2 0 0 0 0 0 0 0 0 0 0 0
449 404 469 680 797 696 420 398 568 810 780 1192 1342 1219 1245 1188 1278 1237 1174 927 697 484 172 210 247 244 158 68 0 0 0 1 0 0 1 0 0 0 0 0 0 0 0
396 317 261 350 552 743 728 563 451 383 500 906 1249 1272 988 683 1000 970 868 768 640 470 336 266 219 148 115 173 13 1 1 0 0 0 0 1 1 0 0 0 0 0 0
208 172 302 325 424 378 303 274 256 237 341 653 690 751 733 507 502 661 634 609 644 510 388 228 256 210 136 162 49 8 1 0 0 0 0 0 0 0 0 0 0 0 0

GFSSE_con_mlcape_138.txt.gz
CAPE
60 672 684 824 950 718 479 393 419 425 517 889 1176 1255 1175 1149 1094 1127 1266 1365 1257 1341 1389 1135 952 873 857 847 844 677 630 561 521 446 301 307 663 881 753 698 604 639 619
77 770 764 968 947 812 585 486 487 535 627 911 1161 1263 1299 1224 1194 1281 1322 1299 1195 1212 1206 1154 1050 933 1045 907 682 550 322 162 119 88 38 342 551 840 683 579 557 615 528
165 804 860 970 955 915 736 621 584 637 697 769 1027 1142 1245 1315 1319 1327 1256 1190 1234 1241 1118 1037 1084 1146 965 752 301 273 410 530 463 397 458 589 812 840 823 646 613 568 487
262 727 842 940 965 973 893 818 716 741 755 825 906 1044 1210 1324 1340 1316 1179 1182 1261 1183 1216 1227 1258 1300 1105 933 702 638 587 732 670 554 548 708 831 903 663 532 543 543 445
265 677 823 929 937 991 997 947 831 766 746 834 989 1110 1316 1360 1298 1220 1121 1128 1163 1214 1331 1453 1359 1096 984 983 943 906 832 790 643 515 403 410 685 762 785 740 532 334 133
137 523 772 878 896 988 1035 1032 948 787 752 860 1001 1124 1366 1402 1172 1027 947 996 1101 1301 1414 1352 1082 871 844 774 701 670 605 542 441 387 345 293 361 799 716 464 276 211 96
137 398 740 859 932 1027 1115 1105 1010 826 799 885 1041 1164 1319 1321 1037 771 704 859 950 1234 1292 958 735 707 688 550 506 499 460 489 396 406 352 324 445 728 610 473 261 84 10
2 132 554 864 961 1072 1204 1154 1027 891 847 924 1085 1164 1324 1237 871 614 545 693 834 826 907 646 628 657 624 406 430 453 422 458 377 344 287 304 444 521 489 417 148 26 4
46 161 348 824 1053 1139 1173 1130 1019 940 881 945 1108 1185 1315 1193 807 513 428 344 692 689 513 599 577 591 671 530 313 425 448 365 309 310 336 392 341 312 421 327 104 9 0
54 155 262 561 943 1179 1262 1091 1008 962 952 969 1140 1233 1302 1232 925 510 291 71 472 629 380 526 545 539 548 469 320 393 388 316 209 267 325 372 339 237 296 285 154 8 0
3 60 175 362 617 901 1103 1197 1110 1061 1074 1115 1229 1318 1307 1260 1032 730 255 19 4 249 340 321 454 508 462 328 309 339 269 187 208 258 226 365 348 322 285 247 144 74 6
0 1 74 219 457 648 877 1134 1189 1178 1158 1263 1349 1421 1443 1254 1021 724 334 3 0 9 135 265 283 433 453 306 210 148 123 134 171 168 205 295 238 297 177 176 105 51 28
12 24 85 193 393 488 660 860 1050 1207 1216 1293 1406 1434 1453 1046 981 719 326 0 0 0 81 233 252 144 327 235 153 45 58 90 169 186 173 210 164 390 218 161 49 60 27
142 53 91 301 320 417 599 702 756 954 1086 1149 1234 1399 1363 957 849 679 334 0 0 7 55 127 93 81 161 167 131 47 50 104 115 107 117 167 156 342 184 175 92 81 30
336 427 221 155 349 301 483 540 588 752 835 1111 1140 1319 1207 1022 789 607 387 20 4 24 22 31 63 55 53 1 7 19 40 78 66 51 68 127 170 203 265 171 146 109 31
105 441 664 517 238 338 407 445 465 726 825 920 1057 1207 1236 1012 828 584 440 110 23 38 45 51 47 31 30 20 0 10 23 39 5 1 28 72 128 173 191 217 134 104 42
0 0 274 667 618 397 408 467 509 731 840 785 991 1156 1282 1323 1160 810 488 300 85 49 58 87 38 7 41 24 7 4 6 21 6 3 18 36 69 116 158 78 38 69 41
0 0 35 986 805 720 568 531 507 574 746 695 795 956 923 905 962 727 588 385 162 84 45 33 14 4 37 54 4 0 0 0 20 12 8 22 49 53 107 38 6 13 28
0 0 0 109 631 899 828 731 625 589 615 631 546 529 637 687 852 764 657 530 261 160 74 27 19 19 29 46 4 0 0 0 9 13 8 13 35 69 31 17 3 14 19
0 0 0 19 596 1109 1098 958 906 753 639 623 597 594 647 690 810 868 751 581 348 292 187 112 92 42 28 43 7 0 0 0 15 1 2 7 0 22 2 1 0 3 17
0 0 0 0 561 1448 1560 1420 1398 1361 1082 905 749 736 780 817 857 886 819 586 337 507 392 217 185 56 35 30 3 0 0 0 0 0 0 0 0 0 0 0 0 0 11
0 0 0 0 492 1334 1876 1890 1775 1694 1505 1319 1278 1201 1182 1076 1041 916 855 645 483 642 493 354 181 103 50 35 31 0 1 1 1 0 0 0 0 0 0 0 0 0 0
0 0 0 0 232 1714 2174 2020 1670 1494 1157 1170 1163 1383 1355 1287 1325 1305 1211 952 759 720 543 348 150 106 122 22 4 3 0 1 0 0 1 1 0 0 0 0 0 0 0
0 0 73 416 1219 1829 1990 1830 1685 1441 1327 1082 1220 980 868 1190 1402 1490 1515 1268 908 608 418 223 117 103 78 74 2 0 0 0 0 0 1 1 1 0 0 0 0 0 0
86 289 699 1165 1386 1362 1617 1646 1189 1034 1200 1264 1345 1228 1111 955 1283 1423 1212 1291 1074 702 485 238 151 43 78 91 25 7 0 0 0 0 0 0 1 1 0 0 0 0 0
152 374 556 921 875 723 733 640 743 738 693 675 636 890 1170 1001 786 1041 947 1043 859 672 528 224 158 68 45 95 31 12 2 0 0 0 0 0 0 1 1 0 0 0 0

GFSSE_con_mlcape_141.txt.gz
CAPE
231 901 744 907 795 569 450 357 428 646 866 1227 1300 1159 1037 1087 1160 1169 1318 1330 1437 1516 1301 1085 1096 1059 1181 1021 969 863 788 714 349 64 38 48 169 276 400 548 656 695 594
351 1000 809 905 795 566 488 445 465 735 981 1270 1296 1186 1092 1154 1197 1283 1312 1312 1438 1550 1296 1099 1031 931 994 860 822 751 708 644 555 185 196 152 102 183 291 242 516 613 422
304 1007 943 894 880 668 568 540 491 645 922 1173 1262 1192 1212 1188 1251 1348 1361 1304 1326 1366 1343 1214 1225 1217 1039 855 668 564 214 79 33 99 492 350 407 267 275 225 399 430 413
479 1062 1131 978 966 799 665 633 629 671 882 1105 1230 1273 1276 1263 1335 1343 1302 1248 1281 1223 1253 1367 1439 1129 742 228 197 387 525 466 468 646 586 419 443 411 407 367 464 571 466
664 1068 1176 1035 1055 978 819 781 822 790 812 990 1168 1291 1312 1354 1373 1346 1205 1211 1161 1262 1383 1581 1476 1193 784 570 523 658 685 642 582 616 662 598 451 380 378 413 522 420 358
737 1069 1083 1023 1087 1082 978 913 969 912 861 900 1078 1189 1264 1359 1379 1179 1116 1146 1178 1350 1511 1622 1259 961 844 771 710 681 783 737 727 801 672 524 679 620 581 432 330 304 185
769 1091 1201 1112 1158 1170 1123 1067 1060 948 912 940 1100 1204 1299 1271 1115 982 997 1112 1227 1383 1397 1206 889 778 742 743 783 780 724 651 845 735 533 570 494 698 555 386 230 68 34
660 1023 1307 1176 1224 1243 1227 1207 1058 936 944 991 1112 1235 1333 1145 917 782 877 1002 1205 1276 1029 736 698 623 523 526 526 530 584 561 670 636 607 506 543 665 546 303 58 20 0
889 772 1115 1330 1349 1249 1260 1297 1095 903 938 1010 1099 1202 1266 1024 770 621 732 849 931 984 568 580 585 488 323 348 354 425 518 555 762 672 573 517 418 520 530 241 99 21 0
560 844 938 1134 1297 1474 1533 1341 1145 895 925 1035 1111 1171 1188 972 698 509 554 696 771 665 513 540 533 475 253 235 355 391 420 431 531 554 621 538 404 395 424 299 120 0 0
239 603 853 926 1039 1248 1378 1508 1252 1025 990 1084 1214 1257 1292 1392 979 622 512 246 707 501 485 498 494 490 354 208 270 185 369 689 506 408 437 334 310 293 376 287 132 5 0
4 215 486 584 623 893 1155 1288 1575 1535 1446 1512 1588 1676 1746 1573 1425 952 446 101 388 476 365 461 476 431 449 553 417 138 641 614 582 451 392 254 305 297 223 198 132 66 17
0 33 292 363 438 731 1112 1290 1434 1371 1462 1499 1538 1612 1632 1381 1249 1094 756 272 187 364 517 363 509 666 721 653 635 399 462 596 559 565 221 233 282 263 262 175 183 104 38
22 2 129 376 355 531 889 1166 1298 1146 1200 1209 1338 1442 1501 1077 1047 1182 890 395 24 46 305 488 543 692 698 595 571 358 260 457 523 272 254 165 164 258 264 215 178 120 52
23 41 67 244 347 357 684 1042 1249 1180 1217 1250 1219 1282 1402 1168 1112 1166 954 402 20 43 277 391 464 305 396 529 449 317 192 188 138 115 80 99 124 114 226 207 155 141 57
335 227 67 62 200 377 422 961 1153 1210 1175 1215 1246 1251 1351 1219 1153 883 958 647 76 74 128 270 335 193 304 237 125 140 141 80 79 16 19 61 56 92 154 216 209 139 53
4 535 825 406 171 152 158 482 1027 1110 1045 1109 1081 1051 1264 1138 1174 905 916 803 340 118 103 112 218 23 193 242 119 103 117 121 17 0 0 14 52 49 62 54 112 85 38
0 0 0 525 726 645 406 448 628 1013 1163 1154 1164 989 1106 1066 1069 872 726 830 535 209 144 139 95 16 78 183 196 114 70 71 26 1 1 12 73 81 40 42 74 19 19
0 0 0 2 149 449 936 830 721 851 1047 1166 1161 920 1076 1165 1201 1092 1028 981 529 452 237 187 137 36 18 72 117 85 55 35 45 24 21 51 149 124 82 69 13 0 5
0 0 0 0 0 121 734 1107 996 911 1007 1159 1145 945 919 979 1305 1349 859 673 434 386 334 191 106 32 25 45 80 46 33 15 0 30 43 5 101 135 95 99 32 5 3
0 0 0 0 0 186 421 634 891 874 991 1008 907 708 675 757 887 1014 848 722 508 422 296 207 74 53 55 64 34 20 2 9 0 2 2 0 0 69 88 74 41 13 8
0 0 0 0 0 22 774 813 963 1009 1090 1005 830 736 708 740 811 933 946 804 654 500 297 177 149 107 73 49 32 28 0 1 1 3 3 3 6 4 17 59 35 6 7
0 0 0 0 0 0 936 1516 1414 1432 1334 1040 921 851 914 869 789 820 958 936 739 483 336 236 182 216 172 50 42 74 0 12 2 3 2 4 5 6 16 14 11 2 4
0 0 0 0 0 0 1214 1748 1586 1433 1281 1291 1412 1358 1259 978 893 1083 1078 900 825 570 518 404 316 267 103 81 69 110 32 15 0 0 3 3 3 2 5 22 3 1 0
0 0 0 171 559 666 1338 1784 1678 1501 1637 1448 1522 1641 1486 1434 1057 833 544 348 389 712 709 618 471 270 123 106 44 93 60 0 0 0 0 1 3 3 16 14 2 3 0
0 0 191 405 627 944 1191 1609 1665 1689 866 398 289 688 1073 1217 1192 1038 517 942 943 932 729 648 445 244 149 119 61 151 152 20 22 69 37 0 0 4 2 5 6 0 0